📊 Raw Sensor Data

Showing records 37101 to 37125 of 84,908 total

ID Distance (ft) Battery V Battery A Int Temp (°F) Int Humid (%) Ext Temp (°F) Solar V RSSI SNR Time Stamp
47820 15.4 3.87 -5 59 46 60 0.00 -69 8 07/30/2025 11:15 PM
47819 15.4 3.87 -5 59 46 60 0.00 -69 8 07/30/2025 11:00 PM
47818 15.4 3.94 -5 59 46 60 0.00 -68 8 07/30/2025 10:45 PM
47817 15.4 3.87 -5 59 47 60 0.00 -68 7 07/30/2025 10:30 PM
47816 15.4 3.87 -5 60 47 61 0.00 -69 8 07/30/2025 10:15 PM
47815 15.4 3.87 -5 61 48 61 0.00 -70 8 07/30/2025 10:00 PM
47814 15.4 3.87 -5 61 49 62 0.00 -69 7 07/30/2025 09:45 PM
47813 15.4 3.87 -5 62 50 62 0.00 -68 8 07/30/2025 09:30 PM
47812 15.4 3.87 -5 62 51 62 0.00 -69 8 07/30/2025 09:15 PM
47811 15.4 3.87 -5 64 52 63 0.00 -68 8 07/30/2025 09:00 PM
47810 15.4 3.86 -5 65 54 64 0.00 -70 8 07/30/2025 08:45 PM
47809 15.4 3.86 -5 68 56 65 0.80 -68 7 07/30/2025 08:30 PM
47808 15.5 3.86 -10 72 56 68 4.20 -69 8 07/30/2025 08:15 PM
47807 15.5 3.85 0 77 54 72 4.60 -70 8 07/30/2025 08:00 PM
47806 15.5 3.97 0 81 54 74 4.60 -69 7 07/30/2025 07:45 PM
47805 15.6 3.97 6 84 53 76 4.50 -69 7 07/30/2025 07:30 PM
47804 15.6 3.99 9 87 53 79 4.50 -70 8 07/30/2025 07:15 PM
47803 15.6 4.03 10 89 52 81 4.50 -69 8 07/30/2025 07:00 PM
47802 15.6 3.94 5 91 52 83 5.10 -70 8 07/30/2025 06:45 PM
47801 15.6 3.93 5 93 51 85 5.10 -69 8 07/30/2025 06:30 PM
47800 15.7 3.94 5 95 50 85 5.10 -70 7 07/30/2025 06:15 PM
47799 15.6 4.12 0 96 49 88 5.10 -70 8 07/30/2025 06:00 PM
47798 15.7 3.93 5 97 48 88 5.10 -69 7 07/30/2025 05:45 PM
47797 15.7 3.93 5 98 48 87 5.10 -69 7 07/30/2025 05:30 PM
47796 15.6 4.11 5 99 47 87 5.10 -71 7 07/30/2025 05:15 PM